Location: Nelson
(41.2830°S, 173.2830°E)
Time: 05:12:46
(UTC+13:00)

Radarsat Rocket - Pass Details

Date: 28 September 2021
Orbit: 933 x 1492 km, 100.6° (Epoch: 23 October)

Event Time Altitude Azimuth Distance (km) Brightness Sun altitude
Rises 04:53:59 0° 72° (ENE) 4,621 8.2 -24.8°
Reaches altitude 10° 04:57:46 10° 87° (E) 3,651 7.8 -24.1°
Maximum altitude 05:03:26 20° 128° (SE) 2,925 7.3 -23.2°
Drops below altitude 10° 05:08:58 10° 170° (S) 3,561 7.3 -22.2°
Sets 05:12:35 0° 185° (S) 4,474 7.7 -21.6°
